Date String (YYYY-MM-DD hh:mm:ss) UTC,Instrument flags,Ambient pressure (hPa),Sample flow (lpm),Bypass flow (lpm),Sample temperature (°C),Ambient temperature (°C),ASC tube jacket temperature (°C),LED temperature (°C),Box temperature (°C),Sample RH (%),Span deviation,Mass concentration (μg/m³),Mass concentration (μg/m³),Mass concentration (μg/m³)
DateTimeUTC,F1_M11,P_M11,Q1_M11,Q2_M11,T1_M11,T2_M11,T3_M11,T4_M11,T5_M11,U1_M11,ZSPAN_M11,X0_M11,X2_M11,X1_M11
2021-09-07 04:00:00,,0829.5,5.00,0.00,29.3,28.5,00.0,38.3,31.2,08.9,0001.0,0031.77,0022.58,0021.38
2021-09-07 04:01:00,,0829.5,4.99,0.00,29.4,28.6,00.0,38.3,31.3,08.9,0001.2,0031.66,0022.57,0021.40
2021-09-07 04:02:00,,0829.4,5.00,0.00,29.4,28.7,00.0,38.3,31.3,08.8,0001.2,0031.11,0022.56,0021.41
2021-09-07 04:03:00,,0829.4,4.99,0.00,29.5,28.8,00.0,38.4,31.4,08.8,0001.9,0031.22,0022.64,0021.48
2021-09-07 04:04:00,,0829.3,5.01,0.00,29.5,28.3,00.0,38.4,31.2,08.8,0001.8,0031.32,0022.69,0021.52
2021-09-07 04:05:00,,0829.3,4.99,0.00,29.4,26.5,00.0,38.4,30.8,08.9,0002.1,0030.65,0022.73,0021.56
2021-09-07 04:06:00,,0829.3,5.00,0.00,29.3,26.4,00.0,38.4,30.8,08.9,0001.7,0030.04,0022.82,0021.62
2021-09-07 04:07:00,,0829.3,5.01,0.00,29.3,26.7,00.0,38.4,30.8,09.0,0001.9,0030.11,0022.87,0021.66
2021-09-07 04:08:00,,0829.3,5.00,0.00,29.2,27.1,00.0,38.3,30.9,09.0,0001.7,0030.11,0022.90,0021.67
2021-09-07 04:09:00,,0829.4,4.99,0.00,29.2,27.4,00.0,38.3,31.0,09.0,0001.5,0030.04,0022.92,0021.70
2021-09-07 04:10:00,,0829.4,5.00,0.00,29.3,27.7,00.0,38.3,31.0,09.0,0000.8,0029.92,0022.93,0021.72
2021-09-07 04:11:00,,0829.4,5.00,0.00,29.3,28.0,00.0,38.3,31.1,08.9,0001.2,0030.45,0022.94,0021.72
2021-09-07 04:12:00,,0829.5,5.00,0.00,29.4,28.2,00.0,38.4,31.2,08.7,0001.6,0030.22,0022.85,0021.68
2021-09-07 04:13:00,,0829.5,4.99,0.00,29.4,28.4,00.0,38.4,31.3,08.8,0001.4,0030.27,0022.85,0021.67
2021-09-07 04:14:00,,0829.5,5.00,0.00,29.5,28.5,00.0,38.4,31.3,08.8,0001.1,0030.10,0022.78,0021.63
2021-09-07 04:15:00,,0829.5,4.98,0.00,29.5,28.6,00.0,38.4,31.4,08.7,0000.8,0030.26,0022.73,0021.55
2021-09-07 04:16:00,,0829.5,5.01,0.00,29.6,28.7,00.0,38.5,31.4,08.7,0000.7,0030.33,0022.71,0021.52
2021-09-07 04:17:00,,0829.5,4.99,0.00,29.6,27.9,00.0,38.5,31.2,08.7,0001.0,0030.27,0022.66,0021.45
2021-09-07 04:18:00,,0829.5,5.00,0.00,29.4,25.8,00.0,38.4,30.7,08.7,0000.8,0030.14,0022.60,0021.41
2021-09-07 04:19:00,,0829.5,5.00,0.00,29.2,25.4,00.0,38.4,30.5,08.8,0000.7,0030.39,0022.65,0021.45
2021-09-07 04:20:00,,0829.5,5.00,0.00,29.2,25.8,00.0,38.4,30.6,08.9,0001.1,0030.64,0022.67,0021.44
2021-09-07 04:21:00,,0829.5,5.00,0.00,29.1,26.3,00.0,38.3,30.7,08.9,0001.6,0030.77,0022.61,0021.39
2021-09-07 04:22:00,,0829.5,5.00,0.00,29.1,26.7,00.0,38.3,30.7,09.0,0001.6,0030.56,0022.60,0021.39
2021-09-07 04:23:00,,0829.4,4.99,0.00,29.1,27.1,00.0,38.3,30.8,08.9,0001.3,0030.56,0022.64,0021.40
2021-09-07 04:24:00,,0829.5,4.99,0.00,29.1,27.5,00.0,38.3,30.9,09.0,0002.1,0031.23,0022.63,0021.38
2021-09-07 04:25:00,,0829.5,5.01,0.00,29.2,27.7,00.0,38.3,31.0,09.0,0002.1,0031.34,0022.61,0021.37
2021-09-07 04:26:00,,0829.5,5.00,0.00,29.2,28.0,00.0,38.3,31.0,09.1,0002.3,0031.27,0022.65,0021.41
2021-09-07 04:27:00,,0829.5,5.00,0.00,29.3,28.2,00.0,38.3,31.1,09.0,0002.6,0031.66,0022.64,0021.40
2021-09-07 04:28:00,,0829.5,5.01,0.00,29.3,28.3,00.0,38.3,31.1,08.9,0002.4,0031.86,0022.60,0021.38
2021-09-07 04:29:00,,0829.5,5.00,0.00,29.4,28.4,00.0,38.3,31.2,08.9,0002.0,0032.00,0022.60,0021.35
2021-09-07 04:30:00,,0829.5,5.00,0.00,29.4,28.5,00.0,38.4,31.2,08.9,0001.9,0032.05,0022.51,0021.29
2021-09-07 04:31:00,,0829.5,4.99,0.00,29.4,28.6,00.0,38.4,31.3,08.9,0001.5,0032.24,0022.46,0021.25
2021-09-07 04:32:00,,0829.5,4.99,0.00,29.5,28.7,00.0,38.4,31.3,08.9,0001.5,0032.41,0022.46,0021.26
2021-09-07 04:33:00,,0829.5,5.02,0.00,29.5,28.8,00.0,38.4,31.4,08.8,0001.7,0032.26,0022.41,0021.25
2021-09-07 04:34:00,,0829.5,5.00,0.00,29.6,28.0,00.0,38.5,31.2,08.7,0001.5,0032.27,0022.41,0021.25
2021-09-07 04:35:00,,0829.5,5.01,0.00,29.4,26.0,00.0,38.4,30.7,08.7,0001.2,0031.59,0022.40,0021.26
2021-09-07 04:36:00,,0829.5,5.00,0.00,29.2,25.4,00.0,38.4,30.5,08.8,0001.1,0032.08,0022.44,0021.28
2021-09-07 04:37:00,,0829.5,4.99,0.00,29.1,25.7,00.0,38.4,30.6,08.9,0000.6,0032.55,0022.46,0021.28
2021-09-07 04:38:00,,0829.5,5.00,0.00,29.1,26.2,00.0,38.3,30.6,08.9,0000.3,0032.06,0022.47,0021.29
2021-09-07 04:39:00,,0829.5,5.00,0.00,29.1,26.7,00.0,38.3,30.7,08.9,0000.3,0032.22,0022.46,0021.30
2021-09-07 04:40:00,,0829.5,5.00,0.00,29.1,27.1,00.0,38.3,30.8,08.8,0000.6,0032.42,0022.48,0021.31
2021-09-07 04:41:00,,0829.5,5.01,0.00,29.1,27.5,00.0,38.3,30.9,08.7,0000.7,0033.13,0022.52,0021.35
2021-09-07 04:42:00,,0829.4,5.00,0.00,29.2,27.7,00.0,38.3,31.0,08.8,0001.1,0032.85,0022.49,0021.36
2021-09-07 04:43:00,,0829.5,4.99,0.00,29.2,27.9,00.0,38.3,31.0,08.8,0001.1,0032.43,0022.48,0021.36
2021-09-07 04:44:00,,0829.5,5.00,0.00,29.3,28.1,00.0,38.3,31.1,08.8,0000.9,0032.95,0022.50,0021.36
2021-09-07 04:45:00,,0829.5,5.00,0.00,29.3,28.3,00.0,38.3,31.1,08.7,0000.8,0033.67,0022.55,0021.42
2021-09-07 04:46:00,,0829.4,5.01,0.00,29.3,28.4,00.0,38.3,31.2,08.7,0000.8,0033.85,0022.61,0021.46
2021-09-07 04:47:00,,0829.5,5.00,0.00,29.4,28.5,00.0,38.4,31.2,08.6,0000.8,0034.26,0022.67,0021.50
2021-09-07 04:48:00,,0829.5,4.99,0.00,29.4,28.6,00.0,38.4,31.3,08.4,0000.8,0033.97,0022.66,0021.50
2021-09-07 04:49:00,,0829.5,4.99,0.00,29.5,28.7,00.0,38.4,31.3,08.4,0001.1,0034.09,0022.73,0021.53
2021-09-07 04:50:00,,0829.5,5.00,0.00,29.5,28.7,00.0,38.4,31.4,08.4,0001.5,0033.81,0022.75,0021.57
2021-09-07 04:51:00,,0829.6,4.99,0.00,29.6,28.8,00.0,38.5,31.4,08.8,0001.4,0033.67,0022.78,0021.61
2021-09-07 04:52:00,,0829.6,5.00,0.00,29.6,28.3,00.0,38.5,31.3,08.6,0001.4,0032.57,0022.73,0021.57
2021-09-07 04:53:00,,0829.6,5.00,0.00,29.5,26.5,00.0,38.5,30.8,08.5,0001.8,0032.34,0022.82,0021.62
2021-09-07 04:54:00,,0829.6,5.00,0.00,29.4,26.3,00.0,38.5,30.8,08.8,0001.8,0032.35,0022.87,0021.67
2021-09-07 04:55:00,,0829.5,5.01,0.00,29.3,26.6,00.0,38.4,30.8,08.8,0002.0,0031.99,0022.88,0021.69
2021-09-07 04:56:00,,0829.5,5.00,0.00,29.3,27.0,00.0,38.4,30.9,08.7,0002.2,0031.30,0022.82,0021.65
2021-09-07 04:57:00,,0829.5,4.99,0.00,29.3,27.4,00.0,38.4,31.0,08.7,0001.9,0031.13,0022.75,0021.62
2021-09-07 04:58:00,,0829.6,5.00,0.00,29.3,27.7,00.0,38.4,31.0,08.5,0001.6,0030.37,0022.70,0021.61
2021-09-07 04:59:00,,0829.6,4.99,0.00,29.3,27.9,00.0,38.4,31.1,08.5,0002.3,0030.10,0022.71,0021.63
